DECAYED

COSMOS 2251 DEB, 40224 (Decayed)

Orbit data source: Space-Track

COSMOS 2251 DEB, 40224 was space debris in LEO originally from a launch on Wed, 16 Jun 1993 UTC launched from the Plesetsk Missile And Space Complex (PKMTR). The debris from Iridium 33, an American commercial communications satellite, has been tracked extensively since its accidental collision with the defunct Russian satellite Cosmos 2251 in 2009. This event, occurring at high speed in low Earth orbit (LEO), generated thousands of pieces of space debris, significantly increasing the risk of further collisions. The Iridium 33 debris cloud has impacted space traffic management and orbital debris mitigation strategies, making it a subject of ongoing study in space situational awareness.

Not visible in the next 10 days
Identifier
40224, 1993-036BVD
Orbit
Decayed
Country
Flag of CISCIS
Related business
Manufacturer
Unknown
Mission
Decayed spacecraft
Bus & Motor
Unknown
Mass
Unknown
Launch date (UTC)
1993-06-16 (32 years ago)
Launch vehicle
Unknown
Launch site
Plesetsk Missile And Space Complex (PKMTR)
Object type
Payload
Rocket body
Debris
Shape & HBR
Unknown shape, 0.1 m
Radar Cross Section
Small (<0.1 m²)

Expand to show TLE details & history
Last TLE update: 7 months ago

TLE from 7 months ago
0 COSMOS 2251 DEB
1 40224U 93036BVD 25103.30417871  .00708681  00000-0  94135-2 0  9999
2 40224  73.9518 318.2252 0013341 269.9291  90.0395 15.55642725563956
Epoch: 2025-04-13T07:18Z
TLE epoch observation values (Epoch: 2025-04-13T07:18:01.040Z)
Latitude
-0.0001°
Longitude
6.98542°
Altitude
403.052 km
Speed
7.669 km/s
True Right ascension
21h 12m 54s
True Declination
0° 00' 00"
Sunlit
Object was in daylight at epoch
Visualization orbit readout
Latitude
Unknown
Longitude
Unknown
Altitude
Unknown
Speed
Unknown
Apparent Right ascension
Unknown
Apparent Declination
Unknown
Sunlit
N/A
Visualization observer readout
Local Sidereal Time
11:00:25
Azimuth
Unknown
Elevation
Unknown
Doppler factor
Unknown
Orbital elements
Apogee altitude
406.826 km
Perigee altitude
388.746 km
Semi-major axis
6,775.923 km
Eccentricity
0.00133
Inclination
73.9518°
RAAN
318.2252°
Arg. of periapsis
269.9291°
True anomaly
90.19238°
Mean anomaly
90.0395°
Eccentric anomaly
90.11594°
Mean motion
3.89126 °/min
Orbital period
92.51 mins
BSTAR
0.0094135

Documentation

Showing up to 5 results
|